Time,TemperatureF,DewpointF,PressureIn,WindDirection,WindDirectionDegrees,WindSpeedMPH,WindSpeedGustMPH,Humidity,HourlyPrecipIn,Conditions,Clouds,dailyrainin,SolarRadiationWatts/m^2,SoftwareType,DateUTC
2013-01-15 00:00:00,32.0,15.0,-100.00,SW,225,0.0,1.0,50,-99.99,,,0.00,-0.200000,,2013-01-15 08:00:00,
2013-01-15 00:53:00,32.0,15.0,-100.00,SW,225,0.0,1.0,50,-99.99,,,0.00,-0.200000,,2013-01-15 08:53:00,
2013-01-15 01:00:00,34.0,16.0,-100.00,NW,311,0.0,1.0,48,-99.99,,,-99.99,-0.200000,,2013-01-15 09:00:00,
2013-01-15 01:52:00,34.0,16.0,-100.00,NW,311,0.0,1.0,48,-99.99,,,-99.99,-0.200000,,2013-01-15 09:52:00,
2013-01-15 02:00:00,37.0,15.0,-100.00,NW,308,1.0,1.0,40,-99.99,,,0.00,-0.200000,,2013-01-15 10:00:00,
2013-01-15 02:52:00,37.0,15.0,-100.00,NW,308,1.0,1.0,40,-99.99,,,0.00,-0.200000,,2013-01-15 10:52:00,
2013-01-15 03:00:00,36.0,9.0,-100.00,WNW,297,1.0,4.0,31,-99.99,,,0.00,-0.200000,,2013-01-15 11:00:00,
2013-01-15 03:53:00,36.0,9.0,-100.00,WNW,297,1.0,4.0,31,-99.99,,,0.00,-0.200000,,2013-01-15 11:53:00,
2013-01-15 04:00:00,38.0,10.0,-100.00,WNW,285,1.0,3.0,31,-99.99,,,0.00,-0.200000,,2013-01-15 12:00:00,
2013-01-15 04:53:00,38.0,10.0,-100.00,WNW,285,1.0,3.0,31,-99.99,,,0.00,-0.200000,,2013-01-15 12:53:00,
2013-01-15 05:00:00,44.0,14.0,-100.00,WNW,303,3.0,4.0,30,-99.99,,,0.00,-0.200000,,2013-01-15 13:00:00,
2013-01-15 05:53:00,44.0,14.0,-100.00,WNW,303,3.0,4.0,30,-99.99,,,0.00,-0.200000,,2013-01-15 13:53:00,
2013-01-15 06:00:00,43.0,11.0,-100.00,WNW,292,3.0,4.0,26,-99.99,,,0.00,-0.200000,,2013-01-15 14:00:00,
2013-01-15 06:53:00,43.0,11.0,-100.00,WNW,292,3.0,4.0,26,-99.99,,,0.00,-0.200000,,2013-01-15 14:53:00,
2013-01-15 07:00:00,44.0,9.0,-100.00,NW,304,3.0,5.0,24,-99.99,,,0.00,-0.200000,,2013-01-15 15:00:00,
2013-01-15 07:53:00,44.0,9.0,-100.00,NW,304,3.0,5.0,24,-99.99,,,0.00,-0.200000,,2013-01-15 15:53:00,
2013-01-15 09:00:00,42.0,7.0,-100.00,North,-999,-999.0,-999.0,23,-99.99,,,0.00,-11.200000,,2013-01-15 17:00:00,
2013-01-15 09:53:00,42.0,7.0,-100.00,North,-999,-999.0,-999.0,23,-99.99,,,0.00,-11.200000,,2013-01-15 17:53:00,
2013-01-15 10:00:00,50.0,10.0,-100.00,WNW,301,2.0,4.0,19,-99.99,,,0.00,115.800003,,2013-01-15 18:00:00,
2013-01-15 11:00:00,52.0,6.0,-100.00,West,264,2.0,5.0,15,-99.99,,,0.00,294.299988,,2013-01-15 19:00:00,
2013-01-15 11:53:00,52.0,6.0,-100.00,West,264,2.0,5.0,15,-99.99,,,0.00,294.299988,,2013-01-15 19:53:00,
2013-01-15 12:00:00,53.0,7.0,-100.00,West,281,3.0,5.0,15,-99.99,,,0.00,351.899994,,2013-01-15 20:00:00,
2013-01-15 12:53:00,53.0,7.0,-100.00,West,281,3.0,5.0,15,-99.99,,,0.00,351.899994,,2013-01-15 20:53:00,
2013-01-15 14:00:00,53.0,5.0,-100.00,West,272,2.0,6.0,14,-99.99,,,0.00,297.399994,,2013-01-15 22:00:00,
2013-01-15 14:53:00,53.0,5.0,-100.00,West,272,2.0,6.0,14,-99.99,,,0.00,297.399994,,2013-01-15 22:53:00,
2013-01-15 15:00:00,53.0,5.0,-100.00,SSE,148,2.0,4.0,14,-99.99,,,0.00,253.000000,,2013-01-15 23:00:00,
2013-01-15 15:53:00,53.0,5.0,-100.00,SSE,148,2.0,4.0,14,-99.99,,,0.00,253.000000,,2013-01-15 23:53:00,
2013-01-15 16:00:00,46.0,6.0,-100.00,West,270,1.0,3.0,19,-99.99,,,0.00,66.599998,,2013-01-16 00:00:00,
2013-01-15 16:53:00,46.0,6.0,-100.00,West,270,1.0,3.0,19,-99.99,,,0.00,66.599998,,2013-01-16 00:53:00,
2013-01-15 17:00:00,39.0,4.0,-100.00,WNW,289,1.0,3.0,23,-99.99,,,0.00,6.800000,,2013-01-16 01:00:00,
2013-01-15 17:53:00,39.0,4.0,-100.00,WNW,289,1.0,3.0,23,-99.99,,,0.00,6.800000,,2013-01-16 01:53:00,
2013-01-15 18:00:00,38.0,7.0,-100.00,NW,305,1.0,2.0,26,-99.99,,,0.00,0.200000,,2013-01-16 02:00:00,
2013-01-15 18:53:00,38.0,7.0,-100.00,NW,305,1.0,2.0,26,-99.99,,,0.00,0.200000,,2013-01-16 02:53:00,
2013-01-15 19:00:00,37.0,2.0,-100.00,WNW,288,2.0,2.0,22,-99.99,,,0.00,-0.200000,,2013-01-16 03:00:00,
2013-01-15 19:53:00,37.0,2.0,-100.00,WNW,288,2.0,2.0,22,-99.99,,,0.00,-0.200000,,2013-01-16 03:53:00,
2013-01-15 20:00:00,37.0,1.0,-100.00,WNW,282,1.0,3.0,21,-99.99,,,0.00,-0.200000,,2013-01-16 04:00:00,
2013-01-15 20:52:00,37.0,1.0,-100.00,WNW,282,1.0,3.0,21,-99.99,,,0.00,-0.200000,,2013-01-16 04:52:00,
2013-01-15 21:00:00,37.0,-2.0,-100.00,WNW,282,2.0,4.0,18,-99.99,,,0.00,-0.200000,,2013-01-16 05:00:00,
2013-01-15 21:53:00,37.0,-2.0,-100.00,WNW,282,2.0,4.0,18,-99.99,,,0.00,-0.200000,,2013-01-16 05:53:00,
2013-01-15 22:00:00,39.0,0.0,-100.00,WSW,256,2.0,3.0,19,-99.99,,,0.00,-0.200000,,2013-01-16 06:00:00,
2013-01-15 22:53:00,39.0,0.0,-100.00,WSW,256,2.0,3.0,19,-99.99,,,0.00,-0.200000,,2013-01-16 06:53:00,
2013-01-15 23:00:00,38.0,-99.9,-100.00,North,-999,-999.0,-999.0,-999,-99.99,,,0.00,-51.700001,,2013-01-16 07:00:00,
2013-01-15 23:52:00,38.0,-99.9,-100.00,North,-999,-999.0,-999.0,-999,-99.99,,,0.00,-51.700001,,2013-01-16 07:52:00,